Regional Weather Roundup
Issued by NWS

Home | Current Version | Previous Version | Graphics & Text | Print | Product List | Glossary On
Versions: 1 2 3 4 5 6 7 8 9 10 11 12 13 14 15 16 17 18 19 20 21 22 23 24 25 26 27 28 29 30 31 32 33 34 35 36 37 38 39 40 41 42 43 44 45 46 47 48 49 50
000
ASUS45 KBOU 291607
RWRCO

WEATHER ROUNDUP FOR COLORADO
NATIONAL WEATHER SERVICE DENVER/BOULDER CO
1000 AM MDT TUE JUL 29 2014

NOTE: "FAIR" INDICATES FEW OR NO CLOUDS BELOW 12000 FEET WITH NO
SIGNIFICANT WEATHER AND/OR OBSTRUCTIONS TO VISIBILITY.

COZ001>005-013-030-031-291700-
...NORTHWEST COLORADO...

CITY           SKY/WX    TMP DP  RH WIND       PRES   REMARKS
CRAIG          RAIN      56  32  40 VRB3      30.35S
HAYDEN         CLOUDY    64  48  55 W5        30.36S
MEEKER         CLOUDY    64  54  69 SE5       30.36S
MOUNT WERNER   NOT AVBL
STEAMBOAT SPGS CLOUDY    65  50  58 CALM      30.36F
WALDEN         MOSUNNY   63  45  51 CALM      30.43F
$$

COZ006>008-011-291700-
...WEST CENTRAL VALLEYS...

CITY           SKY/WX    TMP DP  RH WIND       PRES   REMARKS
GRAND JUNCTION CLOUDY    66  60  81 SE9       30.29S
MONTROSE       PTSUNNY   66  61  84 W3        30.36S
EAGLE          CLOUDY    61  54  77 CALM      30.40S
RIFLE          LGT RAIN  63  60  90 CALM      30.34R
DELTA          CLOUDY    70  59  67 CALM      30.33S
NUCLA          PTSUNNY   64  59  82 CALM      30.39S
$$

COZ017>023-064>068-291700-
...SOUTHWEST COLORADO...

CITY           SKY/WX    TMP DP  RH WIND       PRES   REMARKS
DURANGO        PTSUNNY   65  55  70 CALM      30.39S
CORTEZ         PTSUNNY   68  60  75 CALM      30.34F
PAGOSA SPRINGS CLOUDY    63  51  65 CALM      30.45F
TELLURIDE      NOT AVBL
WOLF CREEK PAS NOT AVBL
$$

COZ009-010-012-014-032>034-037-058>063-291700-
...CENTRAL COLORADO...

CITY           SKY/WX    TMP DP  RH WIND       PRES   REMARKS
ASPEN          LGT RAIN  56  52  86 CALM      30.44S
BUENA VISTA    CLOUDY    59  51  73 NW3       30.44F
COPPER MTN     CLOUDY    50  43  76 W13       30.70R
BERTHOUD PASS  CLOUDY    43  30  61 N5        30.74F
COTTONWOOD PAS CLOUDY    55  52  88 CALM      30.56S
GUNNISON       PTSUNNY   61  52  72 CALM      30.47S
KREMMLING      CLOUDY    63  46  55 CALM      30.42F
LEADVILLE      CLOUDY    51  47  86 N5        30.54F
MONARCH PASS   FOG       45  43  93 W14       30.79S VSB<1/4
SALIDA         PTSUNNY   65  52  62 NW6       30.48S
SUNLIGHT       DRIZZLE   52  50  93 CALM      30.64S
WILKERSON PASS CLOUDY    50  43  76 SE7       30.67S
$$

COZ069>075-291700-
...SAN LUIS VALLEY/SANGRE DE CRISTO MOUNTAINS...

CITY           SKY/WX    TMP DP  RH WIND       PRES   REMARKS
ALAMOSA        CLOUDY    59  54  83 CALM      30.44F
LA VETA PASS   FOG       50  48  93 SW8       30.57F VSB 1/4
SAGUACHE       CLOUDY    59  52  77 CALM      30.46S
$$

COZ035-036-038>040-291700-
...NORTHERN COLORADO FRONT RANGE...

CITY           SKY/WX    TMP DP  RH WIND       PRES   REMARKS
DENVER INTL AP PTSUNNY   71  58  63 CALM      30.26S
DMNS CITY PARK   N/A     76  57  51 N8        30.25F
AURORA         PTSUNNY   71  58  64 VRB3      30.28F
FRONT RANGE AP NOT AVBL
ERIE MUNI ARPT PTSUNNY   74  59  58 NE5       30.24F
BOULDER MUN AP PTSUNNY   77  54  44 NE6       30.24F
CENTENNIAL     PTSUNNY   71  54  54 NW3       30.29S
BROOMFIELD     PTSUNNY   73  57  56 N3        30.28S
FORT COLLINS   PTSUNNY   75  61  60 NE6       30.25S
LONGMONT       PTSUNNY   80  58  46 NE8       30.25S
$$

COZ041-046-047-076>085-087-088-291700-
...PIKES PEAK/PALMER DIVIDE AND SOUTHERN FOOTHILLS...

CITY           SKY/WX    TMP DP  RH WIND       PRES   REMARKS
COLO. SPRINGS  PTSUNNY   69  57  65 S3        30.32F
A. F. ACADEMY  PTSUNNY   70  55  57 CALM      30.33F
ELLICOTT       PTSUNNY   68  61  78 S6        30.31S
FALCON         PTSUNNY   69  57  67 SE3       30.37F
FORT CARSON    PTSUNNY   68  58  72 VRB2      30.30S
LIMON          SUNNY     73  59  61 VRB5      30.27F
MONUMENT HILL  MOSUNNY   68  54  60 CALM      30.36S
TRINIDAD       PTSUNNY   71  58  63 W10       30.29F
$$

COZ042>045-048>051-090-091-291700-
...NORTHEAST COLORADO...

CITY           SKY/WX    TMP DP  RH WIND       PRES   REMARKS
GREELEY ARPT   NOT AVBL
AKRON          SUNNY     77  59  53 SE9       30.24S
BURLINGTON     MOSUNNY   75  63  66 S8        30.23S
WRAY             N/A     78  61  55 SE10      30.22F
STERLING       SUNNY     75  64  69 NE8       30.21S
HOLYOKE        CLOUDY    73  61  64 E12       30.24S
FORT MORGAN    SUNNY     77  59  54 E7        30.24S
$$

COZ086-089-092>099-291700-
...SOUTHEAST COLORADO...

CITY           SKY/WX    TMP DP  RH WIND       PRES   REMARKS
PUEBLO         PTSUNNY   70  62  76 CALM      30.22F
LA JUNTA       CLOUDY    72  63  73 W3        30.20F
LAMAR          CLOUDY    77  63  61 S9        30.16F
SPRINGFIELD      N/A     73  63  70 SW14G22   30.22F
$$


USA.gov is the U.S. government's official web portal to all federal, state and local government web resources and services.